Preview of NWS' New Version of Forecast
This preview is not operational and should not be used for support decisions.

Regional Weather Roundup (RWR)

Issued by National Weather Service (NWS)

                            
000
ASUS43 KLSX 171957
RWRMO 

WEATHER SUMMARY FOR MISSOURI
NATIONAL WEATHER SERVICE SPRINGFIELD MO
300 PM CDT WED APR 17 2019

NOTE: "FAIR" INDICATES FEW OR NO CLOUDS BELOW 12,000 FEET WITH NO
       SIGNIFICANT WEATHER AND/OR OBSTRUCTIONS TO VISIBILITY.
       CURRENT SKY AND/OR WEATHER CONDITIONS ARE NOT AVAILABLE FOR
       CHILLICOTHE AND FARMINGTON.

MOZ001>031-035>038-043-044-053-054-172100-
...NORTHERN AND WESTERN MISSOURI...
  
CITY           SKY/WX    TMP DP  RH WIND       PRES   REMARKS
KANSAS CTY INT CLOUDY    72  59  63 SW16      29.66F                  
LEE'S SUMMIT   CLOUDY    74  60  61 SW15      29.67F                  
ST JOSEPH      PTSUNNY   77  61  57 SW17      29.63F                  
CHILLICOTHE      N/A     72  59  63 S12G22    29.66F                  
     
$$
MOZ066>068-077>081-088>096-101>105-172100-
...SOUTHWEST MISSOURI...
  
CITY           SKY/WX    TMP DP  RH WIND       PRES   REMARKS
SPRINGFIELD    PTSUNNY   75  60  59 S22G33    29.75F                  
JOPLIN         PTSUNNY   75  62  64 S21G30    29.72F                  
BRANSON        PTSUNNY   73  59  60 S8G17     29.81F                  
               
$$
MOZ032>034-039>042-045>050-055>058-069>072-172100-
...CENTRAL MISSOURI...  
  
CITY           SKY/WX    TMP DP  RH WIND       PRES   REMARKS
COLUMBIA       NOT AVBL                                               
JEFFERSON CITY PTSUNNY   77  56  48 SW17G25   29.70F                  
ROLLA          MOSUNNY   78  58  49 S15G30    29.73F                  
SEDALIA        CLOUDY    72  60  66 S17G32    29.71S                  
WARRENSBURG    CLOUDY    73  59  60 S14G22    29.68F                  
               
$$
MOZ051-052-059>065-172100-
...EAST CENTRAL MISSOURI...
  
CITY           SKY/WX    TMP DP  RH WIND       PRES   REMARKS
ST LOUIS INTL  MOSUNNY   82  53  36 SW16G25   29.71F                  
                   
$$
MOZ072>076-082>087-097>100-106>115-172100-
...SOUTH CENTRAL AND SOUTHEAST MISSOURI...
  
CITY           SKY/WX    TMP DP  RH WIND       PRES   REMARKS
CAPE GIRARDEAU FAIR      73  61  65 S23G36    29.85F                  
POPLAR BLUFF   CLOUDY    69  62  78 SW14G21   29.87S                  
                                       
$$